Regional Weather Roundup
Issued by NWS

Home | Current Version | Previous Version | Text Only | Print | Product List | Glossary On
Versions: 1 2 3 4 5 6 7 8 9 10 11 12 13 14 15 16 17 18 19 20 21 22 23 24 25 26 27 28 29 30 31 32 33 34 35 36 37 38 39 40 41 42 43 44 45 46 47 48 49 50
000
ASUS44 KLUB 021201
RWRTX
WEST TEXAS WEATHER ROUNDUP
NATIONAL WEATHER SERVICE LUBBOCK TX
700 AM CDT TUE SEP 02 2014

NOTE: "FAIR" INDICATES FEW OR NO CLOUDS BELOW 12,000 FEET WITH NO
SIGNIFICANT WEATHER AND/OR OBSTRUCTIONS TO VISIBILITY.

TXZ004-006>008-010-012-014-016-OKZ002-021300-
TEXAS PANHANDLE/OKLAHOMA PANHANDLE

CITY           SKY/WX    TMP DP  RH WIND       PRES   REMARKS
AMARILLO       FOG       65  61  87 N7        29.98R VSB 1/4
BORGER         CLOUDY    71  65  81 NE12      29.98R
CANADIAN       MOCLDY    70  68  95 E7        29.95R
DALHART        CLOUDY    68  65  90 N8        30.05R FOG
DUMAS          CLOUDY    66  65  96 N8        30.01R FOG
GUYMON         CLOUDY    68  67  96 NE7       29.99R
HEREFORD       CLEAR     64  55  73 NW15      29.99R
PAMPA          DRZL/FOG  65  64  94 NE15      29.98R VSB 1/2
PERRYTON       CLOUDY    68  67  96 E18G26    29.97R
$$

TXZ026-029-035-045-048-021300-
SOUTHERN PANHANDLE/SOUTH PLAINS/ROLLING PLAINS

CITY           SKY/WX    TMP DP  RH WIND       PRES   REMARKS
CHILDRESS      CLEAR     76  62  62 S9        29.87R
SEMINOLE       CLEAR     73  57  57 S6        29.98R
LUBBOCK        CLEAR     71  60  68 SE8       29.96R
PLAINVIEW      CLEAR     70  62  75 S8        29.95R
SNYDER         CLEAR     75  65  71 S9        29.95R
$$

TXZ052-054-060>062-072-078-127-140-154-169-021300-
PERMIAN BASIN/CONCHO VALLEY/BIG COUNTRY/EDWARDS PLATEAU

CITY           SKY/WX    TMP DP  RH WIND       PRES   REMARKS
ABILENE        CLEAR     78  68  71 S15       29.92R
BIG SPRING     CLEAR     79  66  65 SE14      29.96S
BRADY          CLEAR     73  70  88 S6        29.96R
BROWNWOOD      PTCLDY    75  68  78 S7        29.94R
JUNCTION       CLEAR     74  69  85 SE3       29.96R
MIDLAND        CLEAR     78  64  61 S15       29.95R
ODESSA         CLEAR     78  61  55 S13       29.96R
SAN ANGELO     CLEAR     76  68  76 S10       29.93R
SONORA         MOCLDY    75  70  83 S9        30.01R
SWEETWATER     CLEAR     76  67  73 S13       29.96S
WINK           CLEAR     78  58  49 SE13      29.90R
$$

TXZ055-058-074-075-080-082-021300-
FAR WEST/SOUTHWEST MOUNTAINS/TRANS PECOS

CITY           SKY/WX    TMP DP  RH WIND       PRES   REMARKS
ALPINE         CLEAR     70  58  65 SW7       30.11S
DRYDEN           N/A     80  68  66 E8        29.93R
EL PASO        CLEAR     75  42  30 S8        29.98R
FORT STOCKTON  CLEAR     75  57  53 S13       29.96R
GUADALUPE PASS CLEAR     72  40  31 SW10      30.12R
MARFA          CLEAR     61  54  77 N6        30.11S
PRESIDIO       FAIR      81  59  48 N7        29.94R
$$

TXZ014-016-019-021>030-083-021300
TEXAS TECH WEST TEXAS MESONET/TEXAS PANHANDLE/NORTHERN SOUTH PLAINS

CITY           SKY/WX    TMP DP  RH WIND       PRES   REMARKS
ABERNATHY 5ENE   N/A     69  60  72 S8        29.97R
AMARILLO 9NNE    N/A     66  65  97 N6        29.97R
AMARILLO 7SSE    N/A     68  54  61 W6        29.99R
AMHERST 1NE      N/A     66  58  76 S7        29.97S
BOOTLEG 11WNW    N/A     62  56  79 NW12      30.04R
CANADIAN 6E      N/A     68  67  96 NE17      29.94R
CAPROCK CYN SP   N/A     80  60  51 SW22      29.87S
CHILDRESS 2NNE   N/A     77  62  60 S12       29.85R
CLARENDON 2WSW   N/A     78  60  52 SW15      29.89R
CLAUDE 12SW      N/A     77  61  58 S7        29.95R
DIMMITT 2NE      N/A     67  57  70 SW12      29.98R
FLOYDADA 2NNE    N/A     73  59  62 S13       29.94S
FRIONA 2NE       N/A     65  53  65 S9        30.00R
GOODLETT 3W      N/A     78  61  55 S10       29.84S
HART 3N          N/A     65  59  81 S5        29.97R
HEREFORD 2NW     N/A     64  52  65 S8        29.97S
MCLEAN 1E        N/A     69  61  76 W5        29.89R
MEMPHIS 1NE      N/A     71  64  78 SE3       29.86R
MULESHOE 2SSW    N/A     68  58  71 W7        29.99R
OLTON 6S         N/A     66  58  76 S8        29.96R
PALO DURO SP     N/A     73  59  61 W8        29.98R
PAMPA 2E         N/A     66  65  97 N12       29.96R
PLAINVIEW 1S     N/A     70  61  72 S8        29.95S
SILVERTON 7ESE   N/A     75  60  60 SW18      29.92R
TULIA 2ENE       N/A     70  61  71 S10       29.95R
TURKEY 2WSW      N/A     80  61  52 S14       29.86S
UMBARGER 3NNE    N/A     65  53  64 W10       29.99R
$$

TXZ033>036-039>041-045>048-021300
TEXAS TECH WEST TEXAS MESONET/SOUTH PLAINS

CITY           SKY/WX    TMP DP  RH WIND       PRES   REMARKS
AIKEN 3WSW       N/A     71  61  71 S12       29.96S
ANDREWS 2NE      N/A     76  56  49 S9        29.96R
ANTON 6SSW       N/A     66  58  74 CALM      29.96R
BROWNFIELD 2S    N/A     68  58  70 S7        29.97R
DENVR CTY 7WNW   N/A     66  57  72 SE6       29.97S
GAIL 2ESE        N/A     74  62  65 SE7       29.94R
LAMESA 2SE       N/A     72  60  65 S9        29.95S
LEVELLAND 4S     N/A     65  57  74 S6        29.97R
LUBBOCK 3WNW     N/A     74  58  58 S7        29.96S
MORTON 1ENE      N/A     68  59  72 S10       29.98R
ODONNELL 1N      N/A     73  58  59 S10       29.96R
PLAINS 3N        N/A     68  57  69 SE6       29.98S
RALLS 1SE        N/A     71  59  66 S6        29.97R
REESE CENTER     N/A     70  59  69 S7        29.97R
SEAGRAVES 1SW    N/A     69  58  69 SE6       29.96S
SEMINOLE 2NNE    N/A     72  57  60 SE6       29.96R
SLATON 2NE       N/A     71  59  66 S7        29.96R
SNYDER 3E        N/A     75  65  71 S9        29.93S
SUNDOWN 8SW      N/A     64  56  77 S6        29.98R
TAHOKA 3NNE      N/A     71  58  63 SE8       29.95R
WOLFFORTH 6SSW   N/A     71  59  65 S6        29.97R
$$

TXZ031-032-036>038-042>044-021300-
TEXAS TECH WEST TEXAS MESONET/ROLLING PLAINS

CITY           SKY/WX    TMP DP  RH WIND       PRES   REMARKS
ASPERMONT 3NE    N/A     77  65  65 S8        29.89R
FLUVANNA 3WNW    N/A     74  61  63 S14       29.94R
GRAHAM 5SSW      N/A     74  59  58 SE9       29.95R
GUTHRIE 10WSW    N/A     75  62  63 S9        29.88R
HASKELL 1NW      N/A     78  64  62 S13       29.88R
JAYTON 1SSE      N/A     78  64  61 S10       29.89S
KNOX CITY 3NW    N/A     78  64  62 S9        29.87R
LK A HENRY 1NW   N/A     78  64  61 S13       29.91S
NORTHFIELD 1S    N/A     78  62  58 S7        29.86R
ODELL 4ENE       N/A     79  65  62 S10       29.86R
PADUCAH 10SW     N/A     77  62  59 S15       29.86R
POST 1NE         N/A     76  59  54 S9        29.93R
RRING SPRGS 3N   N/A     77  61  57 S12       29.90S
SEYMOUR 3NW      N/A     79  66  64 S12       29.86R
SPUR 1W          N/A     76  60  57 SW7       29.90S
WEINERT 2NNE     N/A     78  67  67 S12       29.88R
WHITE RVR 6NE    N/A     74  60  61 S8        29.93S
$$

TXZ052-054-060>062-072-078-127-140-154-169-021300-
TEXAS TECH WEST TEXAS MESONET/PERMIAN BASIN/
CONCHO VALLEY/BIG COUNTRY/EDWARDS PLATEAU

CITY           SKY/WX    TMP DP  RH WIND       PRES   REMARKS
JUNCTION 1SSW    N/A     74  69  85 S3        29.96S
MERTZON 3NNE     N/A     75  69  80 S12       29.95R
SAN ANGELO 7NW   N/A     75  67  74 S8        29.94S
STRLNG CT 4WSW   N/A     75  68  79 SE8       29.96R
ST LAWRNCE 5SW   N/A     74  67  76 S15       29.95S
SWEETWATR 11SW   N/A     74  68  80 S10       29.96R
WALL 1E          N/A     75  67  75 S12       29.94R
$$

TXZ055-058-074-075-080-082-021300-
TEXAS TECH WEST TEXAS MESONET/FAR WEST/SOUTHWEST MOUNTAINS/TRANS PECOS

CITY           SKY/WX    TMP DP  RH WIND       PRES   REMARKS
PRSMN GAP BBNP   N/A     80  60  50 NE7       29.96R
GUADLPE MTN NP   N/A     78  30  17 NW16      30.11S
$$


USA.gov is the U.S. government's official web portal to all federal, state and local government web resources and services.